EW4092 Weather Reports


time (UTC)temp
C
wind
direction
speed
KPH
gust
KPH
rain 1hr
cm
rain 24hr
cm
rain mn
cm
humidity
%
barometer
mb
20260508004506 26 42 3.2 4.8 0.00 0.00 0.00 22 1011.9
20260508003005 26 65 0.0 6.4 0.00 0.00 0.00 21 1012.0
20260508001505 26 351 0.0 9.7 0.00 0.00 0.00 22 1012.1
20260508000004 26 104 3.2 6.4 0.00 0.00 0.00 21 1012.1
20260507234501 26 57 4.8 9.7 0.00 0.00 0.00 20 1012.3
20260507233100 25 52 1.6 8.0 0.00 0.00 0.00 25 1012.4
20260507231611 26 277 0.0 8.0 0.00 0.00 0.00 21 1012.5
20260507230057 26 79 0.0 4.8 0.00 0.00 0.00 22 1012.7
20260507224604 25 44 1.6 9.7 0.00 0.00 0.00 23 1013.0
20260507223050 25 64 1.6 11.3 0.00 0.00 0.00 24 1013.1
20260507221548 25 4 3.2 8.0 0.00 0.00 0.00 24 1013.2
20260507220047 25 13 4.8 12.9 0.00 0.00 0.00 24 1013.5
20260507214545 25 326 1.6 11.3 0.00 0.00 0.00 25 1013.6
20260507213055 25 72 3.2 12.9 0.00 0.00 0.00 24 1013.7
20260507211542 25 56 6.4 12.9 0.00 0.00 0.00 25 1013.9
20260507210045 24 360 3.2 9.7 0.00 0.00 0.00 26 1014.0
20260507204548 24 294 3.2 8.0 0.00 0.00 0.00 28 1014.2
20260507203036 23 122 1.6 9.7 0.00 0.00 0.00 26 1014.4
20260507201537 23 232 4.8 8.0 0.00 0.00 0.00 26 1014.5
20260507200036 22 219 3.2 9.7 0.00 0.00 0.00 27 1014.6
20260507194531 22 330 6.4 11.3 0.00 0.00 0.00 26 1014.7
20260507193029 22 252 3.2 9.7 0.00 0.00 0.00 26 1014.8
20260507191530 22 29 1.6 6.4 0.00 0.00 0.00 27 1014.9
20260507190036 22 85 3.2 6.4 0.00 0.00 0.00 27 1015.0
20260507184535 22 100 1.6 6.4 0.00 0.00 0.00 26 1015.1
20260507183026 21 162 0.0 4.8 0.00 0.00 0.00 27 1015.2
20260507181518 20 56 1.6 8.0 0.00 0.00 0.00 26 1015.3
20260507180016 20 128 1.6 6.4 0.00 0.00 0.00 31 1015.4
20260507174514 20 93 1.6 4.8 0.00 0.00 0.00 33 1015.5
20260507173013 18 342 1.6 9.7 0.00 0.00 0.00 36 1015.6
20260507171508 18 153 1.6 8.0 0.00 0.00 0.00 38 1015.6
20260507170007 18 191 1.6 8.0 0.00 0.00 0.00 39 1015.6
20260507164503 17 240 3.2 8.0 0.00 0.00 0.00 38 1015.7
20260507163105 17 105 0.0 8.0 0.00 0.00 0.00 41 1015.9
20260507161609 17 210 3.2 11.3 0.00 0.00 0.00 42 1016.0
20260507154554 16 154 4.8 16.1 0.00 0.00 0.00 43 1015.9
20260507153056 15 162 4.8 17.7 0.00 0.00 0.00 45 1015.9
20260507151550 15 152 4.8 22.5 0.00 0.00 0.00 47 1016.0
20260507150052 15 114 8.0 19.3 0.00 0.00 0.00 47 1015.7
20260507144550 14 140 8.0 25.7 0.00 0.00 0.00 48 1015.6
20260507143044 14 170 6.4 17.7 0.00 0.00 0.00 50 1015.6
20260507141542 13 222 3.2 17.7 0.00 0.00 0.00 52 1015.3
20260507134541 12 202 1.6 12.9 0.00 0.00 0.00 55 1015.3
20260507133041 12 203 4.8 11.3 0.00 0.00 0.00 56 1015.3
20260507131540 12 121 4.8 19.3 0.00 0.00 0.00 57 1015.1
20260507130049 11 131 1.6 12.9 0.00 0.00 0.00 58 1015.2
20260507124543 12 104 1.6 8.0 0.00 0.00 0.00 56 1015.2
20260507123043 12 131 4.8 14.5 0.00 0.00 0.00 57 1015.0
20260507121540 11 102 0.0 9.7 0.00 0.00 0.00 60 1015.0
20260507120029 12 79 1.6 9.7 0.00 0.00 0.00 59 1015.1
20260507114527 12 118 0.0 6.4 0.00 0.00 0.00 57 1015.0
20260507113033 12 108 1.6 14.5 0.00 0.00 0.00 57 1015.0
20260507111525 13 135 3.2 11.3 0.00 0.00 0.00 57 1015.1
20260507110027 13 117 3.2 9.7 0.00 0.00 0.00 57 1015.0
20260507104519 13 105 3.2 11.3 0.00 0.00 0.00 56 1014.9
20260507103018 13 159 1.6 11.3 0.00 0.00 0.00 56 1014.8
20260507101521 13 163 3.2 11.3 0.00 0.00 0.00 57 1014.8
20260507100021 13 270 3.2 9.7 0.00 0.00 0.00 57 1015.0
20260507094512 14 122 1.6 11.3 0.00 0.00 0.00 55 1014.8
20260507093022 14 115 6.4 14.5 0.00 0.00 0.00 56 1014.7
20260507091509 14 117 1.6 12.9 0.00 0.00 0.00 57 1014.7
20260507090006 14 100 4.8 16.1 0.00 0.00 0.00 56 1014.5
20260507084502 15 165 1.6 14.5 0.00 0.00 0.00 55 1014.4
20260507083104 15 135 3.2 17.7 0.00 0.00 0.00 56 1014.2
20260507081558 15 156 3.2 9.7 0.00 0.00 0.00 56 1014.0
20260507080131 15 212 3.2 17.7 0.00 0.00 0.00 56 1014.0
20260507074601 15 177 4.8 11.3 0.00 0.00 0.00 54 1014.0
20260507073059 16 163 8.0 17.7 0.00 0.00 0.00 52 1013.8
20260507071600 16 160 3.2 14.5 0.00 0.00 0.00 52 1013.9
20260507070045 15 135 4.8 11.3 0.00 0.00 0.00 54 1014.0
20260507064550 15 169 6.4 12.9 0.00 0.00 0.00 54 1014.2
20260507063043 16 86 4.8 16.1 0.00 0.00 0.00 53 1014.2
20260507061543 16 233 4.8 14.5 0.00 0.00 0.00 54 1014.2
20260507060042 16 188 1.6 6.4 0.00 0.00 0.00 54 1014.4
20260507054549 16 177 0.0 9.7 0.00 0.00 0.00 51 1014.4
20260507053046 17 93 3.2 12.9 0.00 0.00 0.00 48 1014.3
20260507051540 17 91 3.2 11.3 0.00 0.00 0.00 46 1014.1
20260507050039 18 109 4.8 14.5 0.00 0.00 0.00 44 1014.3
20260507044539 19 139 1.6 12.9 0.00 0.00 0.00 41 1014.2
20260507043040 20 259 0.0 14.5 0.00 0.00 0.00 38 1014.1
20260507041536 20 159 0.0 8.0 0.00 0.00 0.00 38 1014.1
20260507040035 21 111 4.8 16.1 0.00 0.00 0.00 34 1013.9
20260507034534 21 108 8.0 12.9 0.00 0.00 0.00 33 1013.5
20260507033037 21 72 6.4 14.5 0.00 0.00 0.00 33 1013.5
20260507031534 21 98 6.4 20.9 0.00 0.00 0.00 32 1013.3
20260507030033 22 103 8.0 17.7 0.00 0.00 0.00 31 1013.2
20260507024534 23 94 11.3 19.3 0.00 0.00 0.00 30 1013.2
20260507023031 23 135 9.7 25.7 0.00 0.00 0.00 29 1013.0
20260507021531 23 124 19.3 32.2 0.00 0.00 0.00 28 1012.9
20260507020033 23 103 14.5 35.4 0.00 0.00 0.00 28 1012.9
20260507014529 23 103 16.1 32.2 0.00 0.00 0.00 28 1012.8
20260507013035 23 120 9.7 24.1 0.00 0.00 0.00 28 1012.7
20260507011536 23 119 11.3 27.4 0.00 0.00 0.00 29 1012.7
20260507010028 23 82 14.5 24.1 0.00 0.00 0.00 29 1012.7